SAS1705 EFHK-EKCH

Flight info

Callsign SAS1705
Flight time 1h 32m
Altitude 38000
Route NUNTO Y369 REKDO DCT KOSKA DCT TOKSI N872 ERNOV
Aircraft A20N/M-SDE2E3FGHIRWXY/LB1

Departure

Time 2026-05-07 06:17
Airport Helsinki Vantaa Airport (EFHK)

Arrival

Time 2026-05-07 07:50
Airport Copenhagen Kastrup Airport (EKCH)
Time Latitude Longitude Altitude Speed Heading
2026-05-07 05:54 60.31785 24.97078 192 ft 0 kts 243°
2026-05-07 06:07 60.31788 24.97087 192 ft 2 kts 246°
2026-05-07 06:07 60.31794 24.97114 192 ft 2 kts 241°
2026-05-07 06:07 60.31800 24.97140 192 ft 2 kts 243°
2026-05-07 06:07 60.31808 24.97167 191 ft 2 kts 244°
2026-05-07 06:08 60.31809 24.97197 191 ft 2 kts 289°
2026-05-07 06:08 60.31801 24.97221 191 ft 1 kts 325°
2026-05-07 06:08 60.31795 24.97227 192 ft 1 kts 338°
2026-05-07 06:08 60.31792 24.97230 192 ft 0 kts 334°
2026-05-07 06:10 60.31823 24.97199 191 ft 9 kts 333°
2026-05-07 06:10 60.31898 24.97117 188 ft 13 kts 332°
2026-05-07 06:11 60.31989 24.97025 184 ft 15 kts 333°
2026-05-07 06:11 60.32092 24.96913 180 ft 17 kts 331°
2026-05-07 06:11 60.32200 24.96788 177 ft 14 kts 329°
2026-05-07 06:11 60.32246 24.96670 179 ft 10 kts 252°
2026-05-07 06:12 60.32203 24.96565 183 ft 11 kts 226°
2026-05-07 06:12 60.32143 24.96438 185 ft 11 kts 226°
2026-05-07 06:12 60.32090 24.96326 186 ft 11 kts 227°
2026-05-07 06:12 60.32041 24.96214 186 ft 11 kts 229°
2026-05-07 06:13 60.31984 24.96085 184 ft 12 kts 228°
2026-05-07 06:13 60.31919 24.95938 179 ft 15 kts 227°
2026-05-07 06:13 60.31844 24.95774 177 ft 16 kts 227°
2026-05-07 06:13 60.31766 24.95603 177 ft 16 kts 227°
2026-05-07 06:14 60.31686 24.95430 179 ft 16 kts 227°
2026-05-07 06:14 60.31615 24.95271 182 ft 15 kts 228°
2026-05-07 06:14 60.31541 24.95107 180 ft 16 kts 227°
2026-05-07 06:14 60.31454 24.94914 174 ft 20 kts 227°
2026-05-07 06:15 60.31344 24.94675 164 ft 24 kts 227°
2026-05-07 06:15 60.31253 24.94477 164 ft 14 kts 227°
2026-05-07 06:15 60.31182 24.94318 164 ft 15 kts 228°
2026-05-07 06:15 60.31110 24.94158 165 ft 13 kts 227°
2026-05-07 06:16 60.31047 24.94017 165 ft 10 kts 230°
2026-05-07 06:16 60.31031 24.93865 163 ft 13 kts 292°
2026-05-07 06:16 60.31103 24.93718 162 ft 15 kts 329°
2026-05-07 06:16 60.31202 24.93790 159 ft 20 kts 49°
2026-05-07 06:17 60.31465 24.94372 169 ft 93 kts 47°
2026-05-07 06:17 60.32057 24.95677 200 ft 153 kts 47°
2026-05-07 06:17 60.32778 24.97275 846 ft 157 kts 48°
2026-05-07 06:17 60.33492 24.98854 1662 ft 156 kts 48°
2026-05-07 06:18 60.34222 25.00460 2311 ft 163 kts 49°
2026-05-07 06:18 60.35022 25.02225 2806 ft 179 kts 49°
2026-05-07 06:18 60.35892 25.04151 3308 ft 197 kts 50°
2026-05-07 06:18 60.36873 25.06328 3746 ft 222 kts 49°
2026-05-07 06:19 60.37937 25.08693 4435 ft 235 kts 49°
2026-05-07 06:19 60.39093 25.11151 5058 ft 253 kts 40°
2026-05-07 06:19 60.40679 25.12745 5853 ft 265 kts 12°
2026-05-07 06:19 60.42522 25.12989 6916 ft 266 kts
2026-05-07 06:20 60.44362 25.13000 7894 ft 269 kts 358°
2026-05-07 06:20 60.46155 25.12037 8765 ft 276 kts 327°
2026-05-07 06:20 60.47418 25.09224 9668 ft 280 kts 295°
2026-05-07 06:20 60.47839 25.05304 10552 ft 286 kts 268°
2026-05-07 06:21 60.47307 25.01250 11117 ft 304 kts 240°
2026-05-07 06:21 60.46048 24.97658 11685 ft 319 kts 234°
2026-05-07 06:21 60.44752 24.94051 12526 ft 323 kts 235°
2026-05-07 06:21 60.43453 24.90349 13477 ft 324 kts 236°
2026-05-07 06:22 60.42158 24.86611 14396 ft 326 kts 236°
2026-05-07 06:22 60.39586 24.79114 16161 ft 329 kts 237°
2026-05-07 06:22 60.38297 24.75352 16970 ft 331 kts 237°
2026-05-07 06:23 60.37002 24.71574 17791 ft 332 kts 237°
2026-05-07 06:23 60.35682 24.67729 18607 ft 333 kts 237°
2026-05-07 06:23 60.34375 24.63923 19360 ft 335 kts 237°
2026-05-07 06:23 60.33030 24.60011 20125 ft 337 kts 237°
2026-05-07 06:24 60.31704 24.56163 20850 ft 338 kts 237°
2026-05-07 06:24 60.30380 24.52326 21539 ft 340 kts 237°
2026-05-07 06:24 60.29022 24.48396 22237 ft 341 kts 237°
2026-05-07 06:24 60.27668 24.44489 22892 ft 343 kts 236°
2026-05-07 06:25 60.26317 24.40593 23525 ft 345 kts 237°
2026-05-07 06:25 60.24946 24.36648 24148 ft 346 kts 237°
2026-05-07 06:25 60.23559 24.32663 24786 ft 348 kts 236°
2026-05-07 06:25 60.22187 24.28722 25388 ft 350 kts 236°
2026-05-07 06:26 60.20782 24.24695 25949 ft 352 kts 236°
2026-05-07 06:26 60.19390 24.20709 26505 ft 355 kts 235°
2026-05-07 06:26 60.17962 24.16634 27040 ft 357 kts 235°
2026-05-07 06:26 60.16543 24.12591 27552 ft 359 kts 235°
2026-05-07 06:27 60.15115 24.08526 28066 ft 361 kts 236°
2026-05-07 06:27 60.13671 24.04423 28524 ft 363 kts 235°
2026-05-07 06:27 60.12206 24.00272 28986 ft 365 kts 235°
2026-05-07 06:27 60.10737 23.96121 29413 ft 368 kts 235°
2026-05-07 06:28 60.09287 23.91891 29823 ft 371 kts 237°
2026-05-07 06:28 60.07941 23.87529 30248 ft 373 kts 239°
2026-05-07 06:28 60.06702 23.83026 30692 ft 374 kts 242°
2026-05-07 06:28 60.05494 23.78397 31250 ft 372 kts 241°
2026-05-07 06:29 60.04307 23.73903 31759 ft 369 kts 241°
2026-05-07 06:29 60.03117 23.69399 32205 ft 369 kts 241°
2026-05-07 06:29 60.01920 23.64866 32616 ft 368 kts 241°
2026-05-07 06:29 60.00737 23.60392 32989 ft 367 kts 242°
2026-05-07 06:30 59.99550 23.55912 33311 ft 367 kts 242°
2026-05-07 06:30 59.98348 23.51377 33630 ft 367 kts 242°
2026-05-07 06:30 59.97161 23.46909 33917 ft 367 kts 242°
2026-05-07 06:30 59.95977 23.42458 34209 ft 367 kts 242°
2026-05-07 06:31 59.94778 23.37955 34501 ft 366 kts 242°
2026-05-07 06:31 59.93585 23.33488 34762 ft 366 kts 241°
2026-05-07 06:31 59.92399 23.29060 34992 ft 366 kts 241°
2026-05-07 06:31 59.91207 23.24611 35217 ft 366 kts 241°
2026-05-07 06:32 59.90013 23.20163 35448 ft 366 kts 241°
2026-05-07 06:32 59.88817 23.15713 35682 ft 365 kts 242°
2026-05-07 06:32 59.87630 23.11310 35898 ft 365 kts 242°
2026-05-07 06:32 59.86422 23.06835 36090 ft 366 kts 242°
2026-05-07 06:33 59.85229 23.02427 36275 ft 367 kts 242°
2026-05-07 06:33 59.84023 22.97978 36447 ft 369 kts 242°
2026-05-07 06:33 59.82801 22.93475 36603 ft 371 kts 242°
2026-05-07 06:33 59.81571 22.88957 36756 ft 373 kts 242°
2026-05-07 06:34 59.80338 22.84440 36904 ft 374 kts 242°
2026-05-07 06:34 59.79109 22.79945 37049 ft 376 kts 242°
2026-05-07 06:34 59.77862 22.75396 37195 ft 378 kts 242°
2026-05-07 06:34 59.76599 22.70793 37336 ft 379 kts 242°
2026-05-07 06:35 59.75343 22.66229 37477 ft 381 kts 242°
2026-05-07 06:35 59.74088 22.61680 37611 ft 382 kts 242°
2026-05-07 06:35 59.72814 22.57070 37748 ft 384 kts 242°
2026-05-07 06:35 59.71539 22.52461 37866 ft 385 kts 242°
2026-05-07 06:36 59.70238 22.47770 37978 ft 387 kts 242°
2026-05-07 06:36 59.68946 22.43119 38024 ft 389 kts 242°
2026-05-07 06:36 59.66357 22.33828 38029 ft 389 kts 241°
2026-05-07 06:37 59.63750 22.24515 38029 ft 390 kts 241°
2026-05-07 06:37 59.61124 22.15169 38030 ft 390 kts 241°
2026-05-07 06:38 59.58486 22.05815 38025 ft 390 kts 241°
2026-05-07 06:38 59.55856 21.96524 38031 ft 390 kts 241°
2026-05-07 06:39 59.53225 21.87276 38027 ft 390 kts 241°
2026-05-07 06:39 59.50581 21.78014 38029 ft 390 kts 241°
2026-05-07 06:40 59.47925 21.68747 38029 ft 390 kts 241°
2026-05-07 06:40 59.45253 21.59473 38028 ft 390 kts 241°
2026-05-07 06:41 59.42593 21.50267 38020 ft 390 kts 241°
2026-05-07 06:41 59.39925 21.41062 38031 ft 391 kts 241°
2026-05-07 06:42 59.37241 21.31839 38023 ft 391 kts 240°
2026-05-07 06:42 59.34546 21.22610 38027 ft 391 kts 240°
2026-05-07 06:43 59.31854 21.13432 38021 ft 392 kts 240°
2026-05-07 06:43 59.29143 21.04224 38022 ft 391 kts 240°
2026-05-07 06:44 59.26427 20.95035 38027 ft 392 kts 240°
2026-05-07 06:44 59.23716 20.85900 38018 ft 392 kts 240°
2026-05-07 06:45 59.20975 20.76704 38021 ft 392 kts 240°
2026-05-07 06:45 59.18278 20.67578 38027 ft 392 kts 242°
2026-05-07 06:46 59.15828 20.58182 38010 ft 391 kts 243°
2026-05-07 06:46 59.13374 20.48746 38026 ft 391 kts 243°
2026-05-07 06:47 59.10918 20.39328 38026 ft 391 kts 243°
2026-05-07 06:47 59.08470 20.29980 38021 ft 392 kts 243°
2026-05-07 06:48 59.06005 20.20592 38035 ft 392 kts 243°
2026-05-07 06:48 59.03523 20.11177 38025 ft 392 kts 242°
2026-05-07 06:49 59.01044 20.01816 38030 ft 392 kts 242°
2026-05-07 06:49 58.98553 19.92451 38029 ft 393 kts 243°
2026-05-07 06:50 58.96053 19.83091 38042 ft 392 kts 243°
2026-05-07 06:50 58.93551 19.73764 38026 ft 392 kts 243°
2026-05-07 06:51 58.91055 19.64488 38027 ft 392 kts 243°
2026-05-07 06:51 58.88535 19.55161 38038 ft 394 kts 243°
2026-05-07 06:52 58.85995 19.45804 38027 ft 394 kts 243°
2026-05-07 06:52 58.83462 19.36511 38027 ft 394 kts 243°
2026-05-07 06:53 58.80909 19.27187 38024 ft 394 kts 242°
2026-05-07 06:53 58.78355 19.17893 38026 ft 395 kts 242°
2026-05-07 06:54 58.75796 19.08621 38030 ft 393 kts 242°
2026-05-07 06:54 58.73226 18.99344 38041 ft 393 kts 242°
2026-05-07 06:55 58.70672 18.90161 38031 ft 392 kts 242°
2026-05-07 06:55 58.68090 18.80919 38035 ft 393 kts 242°
2026-05-07 06:56 58.65528 18.71776 38033 ft 393 kts 242°
2026-05-07 06:56 58.62928 18.62548 38031 ft 393 kts 242°
2026-05-07 06:57 58.60339 18.53390 38035 ft 393 kts 242°
2026-05-07 06:57 58.57736 18.44215 38033 ft 394 kts 242°
2026-05-07 06:58 58.55066 18.35166 38030 ft 394 kts 239°
2026-05-07 06:58 58.52160 18.26333 38034 ft 394 kts 238°
2026-05-07 06:59 58.49246 18.17508 38030 ft 394 kts 238°
2026-05-07 06:59 58.46329 18.08657 38040 ft 394 kts 238°
2026-05-07 07:00 58.43433 17.99882 38035 ft 394 kts 238°
2026-05-07 07:00 58.40523 17.91092 38033 ft 395 kts 238°
2026-05-07 07:01 58.37589 17.82256 38034 ft 395 kts 238°
2026-05-07 07:01 58.34659 17.73468 38038 ft 395 kts 238°
2026-05-07 07:02 58.31739 17.64738 38033 ft 395 kts 238°
2026-05-07 07:02 58.28778 17.55919 38036 ft 395 kts 238°
2026-05-07 07:03 58.25843 17.47210 38032 ft 396 kts 238°
2026-05-07 07:03 58.22871 17.38423 38038 ft 395 kts 238°
2026-05-07 07:04 58.19912 17.29709 38035 ft 395 kts 238°
2026-05-07 07:04 58.16947 17.21004 38033 ft 395 kts 238°
2026-05-07 07:05 58.13980 17.12327 38036 ft 395 kts 238°
2026-05-07 07:05 58.11003 17.03655 38035 ft 396 kts 237°
2026-05-07 07:06 58.08006 16.94952 38039 ft 396 kts 238°
2026-05-07 07:06 58.05004 16.86272 38037 ft 396 kts 237°
2026-05-07 07:07 58.02017 16.77666 38035 ft 396 kts 238°
2026-05-07 07:07 57.99001 16.69008 38032 ft 396 kts 238°
2026-05-07 07:08 57.95972 16.60341 38027 ft 396 kts 238°
2026-05-07 07:08 57.92948 16.51721 38024 ft 396 kts 238°
2026-05-07 07:09 57.89941 16.43175 38025 ft 395 kts 238°
2026-05-07 07:09 57.86904 16.34583 38023 ft 395 kts 237°
2026-05-07 07:10 57.83876 16.26042 38022 ft 395 kts 237°
2026-05-07 07:10 57.80845 16.17520 38010 ft 396 kts 237°
2026-05-07 07:11 57.77792 16.08971 37999 ft 397 kts 237°
2026-05-07 07:11 57.74723 16.00408 37997 ft 397 kts 237°
2026-05-07 07:12 57.71647 15.91855 38009 ft 397 kts 237°
2026-05-07 07:12 57.68574 15.83346 38007 ft 397 kts 237°
2026-05-07 07:13 57.65486 15.74823 38011 ft 398 kts 237°
2026-05-07 07:13 57.62412 15.66366 38011 ft 398 kts 237°
2026-05-07 07:14 57.59181 15.58020 38004 ft 398 kts 232°
2026-05-07 07:14 57.55659 15.50160 38001 ft 398 kts 232°
2026-05-07 07:15 57.52108 15.42266 38000 ft 398 kts 232°
2026-05-07 07:15 57.48574 15.34400 38002 ft 398 kts 231°
2026-05-07 07:16 57.45058 15.26583 37999 ft 398 kts 231°
2026-05-07 07:16 57.41503 15.18695 37997 ft 398 kts 231°
2026-05-07 07:17 57.37978 15.10896 37998 ft 398 kts 231°
2026-05-07 07:17 57.34413 15.03035 38000 ft 399 kts 231°
2026-05-07 07:18 57.30848 14.95198 37999 ft 400 kts 231°
2026-05-07 07:18 57.27280 14.87383 38002 ft 400 kts 231°
2026-05-07 07:19 57.23705 14.79573 38006 ft 400 kts 231°
2026-05-07 07:19 57.20142 14.71819 38007 ft 399 kts 231°
2026-05-07 07:20 57.16562 14.64055 38009 ft 399 kts 231°
2026-05-07 07:20 57.12986 14.56325 38008 ft 399 kts 231°
2026-05-07 07:21 57.09384 14.48564 38018 ft 400 kts 231°
2026-05-07 07:21 57.05782 14.40829 38015 ft 400 kts 231°
2026-05-07 07:22 57.03992 14.36993 37882 ft 402 kts 231°
2026-05-07 07:22 57.02163 14.33081 37425 ft 403 kts 230°
2026-05-07 07:22 57.00353 14.29214 36873 ft 406 kts 230°
2026-05-07 07:22 56.98518 14.25299 36285 ft 410 kts 230°
2026-05-07 07:23 56.96652 14.21325 35641 ft 415 kts 230°
2026-05-07 07:23 56.94762 14.17309 34993 ft 418 kts 230°
2026-05-07 07:23 56.92876 14.13312 34331 ft 420 kts 230°
2026-05-07 07:23 56.90995 14.09330 33610 ft 421 kts 230°
2026-05-07 07:24 56.89076 14.05277 32879 ft 421 kts 230°
2026-05-07 07:24 56.87187 14.01290 32175 ft 420 kts 230°
2026-05-07 07:24 56.85277 13.97267 31420 ft 420 kts 230°
2026-05-07 07:24 56.83358 13.93231 30548 ft 421 kts 230°
2026-05-07 07:25 56.79553 13.85249 29060 ft 416 kts 231°
2026-05-07 07:25 56.77683 13.81336 28511 ft 410 kts 231°
2026-05-07 07:25 56.75828 13.77462 27956 ft 404 kts 231°
2026-05-07 07:26 56.73991 13.73628 27418 ft 399 kts 231°
2026-05-07 07:26 56.72202 13.69900 26900 ft 394 kts 231°
2026-05-07 07:26 56.70417 13.66187 26373 ft 389 kts 231°
2026-05-07 07:26 56.68650 13.62517 25849 ft 385 kts 231°
2026-05-07 07:27 56.66914 13.58915 25347 ft 381 kts 231°
2026-05-07 07:27 56.65167 13.55297 24836 ft 377 kts 231°
2026-05-07 07:27 56.63462 13.51774 24331 ft 374 kts 230°
2026-05-07 07:27 56.61747 13.48232 23827 ft 371 kts 230°
2026-05-07 07:28 56.60070 13.44776 23336 ft 368 kts 230°
2026-05-07 07:28 56.58382 13.41302 22820 ft 366 kts 230°
2026-05-07 07:28 56.56717 13.37881 22309 ft 364 kts 231°
2026-05-07 07:28 56.55062 13.34483 21799 ft 361 kts 230°
2026-05-07 07:29 56.53405 13.31090 21286 ft 360 kts 230°
2026-05-07 07:29 56.51756 13.27716 20771 ft 358 kts 230°
2026-05-07 07:29 56.50127 13.24394 20273 ft 356 kts 229°
2026-05-07 07:29 56.48220 13.21589 19989 ft 355 kts 212°
2026-05-07 07:30 56.46047 13.19544 19740 ft 356 kts 208°
2026-05-07 07:30 56.43824 13.17581 19490 ft 355 kts 208°
2026-05-07 07:30 56.41620 13.15612 19240 ft 354 kts 209°
2026-05-07 07:30 56.39441 13.13627 18984 ft 353 kts 209°
2026-05-07 07:31 56.37241 13.11594 18724 ft 352 kts 210°
2026-05-07 07:31 56.35082 13.09584 18472 ft 351 kts 210°
2026-05-07 07:31 56.32924 13.07564 18215 ft 351 kts 210°
2026-05-07 07:31 56.30763 13.05535 17965 ft 350 kts 210°
2026-05-07 07:32 56.28612 13.03514 17711 ft 349 kts 210°
2026-05-07 07:32 56.26487 13.01518 17460 ft 348 kts 210°
2026-05-07 07:32 56.24344 12.99505 17200 ft 347 kts 210°
2026-05-07 07:32 56.22213 12.97505 16943 ft 346 kts 210°
2026-05-07 07:33 56.20087 12.95512 16685 ft 346 kts 210°
2026-05-07 07:33 56.17964 12.93524 16407 ft 345 kts 210°
2026-05-07 07:33 56.15868 12.91564 16030 ft 343 kts 210°
2026-05-07 07:33 56.13761 12.89597 15588 ft 341 kts 209°
2026-05-07 07:34 56.11663 12.87639 15121 ft 340 kts 209°
2026-05-07 07:34 56.09594 12.85709 14644 ft 339 kts 209°
2026-05-07 07:34 56.07516 12.83773 14159 ft 338 kts 209°
2026-05-07 07:34 56.05441 12.81842 13670 ft 338 kts 209°
2026-05-07 07:35 56.03349 12.79901 13191 ft 336 kts 209°
2026-05-07 07:35 56.01305 12.78007 12735 ft 335 kts 208°
2026-05-07 07:35 55.99228 12.76084 12271 ft 333 kts 208°
2026-05-07 07:35 55.97185 12.74196 11813 ft 331 kts 208°
2026-05-07 07:36 55.95152 12.72317 11359 ft 330 kts 208°
2026-05-07 07:36 55.93146 12.70464 10907 ft 328 kts 208°
2026-05-07 07:36 55.91145 12.68619 10478 ft 325 kts 208°
2026-05-07 07:36 55.89166 12.66797 10251 ft 315 kts 208°
2026-05-07 07:37 55.87252 12.65038 10131 ft 302 kts 208°
2026-05-07 07:37 55.85429 12.63365 10007 ft 290 kts 208°
2026-05-07 07:37 55.83664 12.61746 9651 ft 288 kts 208°
2026-05-07 07:37 55.81880 12.60109 9274 ft 286 kts 208°
2026-05-07 07:38 55.80125 12.58502 8925 ft 284 kts 208°
2026-05-07 07:38 55.78383 12.56907 8563 ft 282 kts 208°
2026-05-07 07:38 55.76646 12.55320 8215 ft 280 kts 208°
2026-05-07 07:38 55.74943 12.53766 7876 ft 278 kts 208°
2026-05-07 07:39 55.73223 12.52194 7531 ft 276 kts 208°
2026-05-07 07:39 55.71532 12.50652 7193 ft 274 kts 208°
2026-05-07 07:39 55.69857 12.49126 6860 ft 272 kts 208°
2026-05-07 07:39 55.68177 12.47598 6525 ft 270 kts 208°
2026-05-07 07:40 55.66507 12.46081 6205 ft 269 kts 208°
2026-05-07 07:40 55.64843 12.44570 5880 ft 267 kts 208°
2026-05-07 07:40 55.63198 12.43079 5561 ft 266 kts 208°
2026-05-07 07:40 55.61561 12.41596 5240 ft 265 kts 209°
2026-05-07 07:41 55.59988 12.39954 4918 ft 264 kts 216°
2026-05-07 07:41 55.58514 12.37949 4864 ft 271 kts 222°
2026-05-07 07:41 55.57094 12.35785 4890 ft 273 kts 223°
2026-05-07 07:41 55.55666 12.33573 4767 ft 275 kts 222°
2026-05-07 07:42 55.54227 12.31346 4402 ft 275 kts 222°
2026-05-07 07:42 55.52796 12.29146 4159 ft 268 kts 221°
2026-05-07 07:42 55.51421 12.27049 4068 ft 256 kts 219°
2026-05-07 07:42 55.49891 12.25683 3937 ft 244 kts 186°
2026-05-07 07:43 55.48309 12.26187 3896 ft 226 kts 144°
2026-05-07 07:43 55.47221 12.28087 3886 ft 219 kts 124°
2026-05-07 07:43 55.46308 12.30201 3625 ft 218 kts 124°
2026-05-07 07:43 55.45378 12.32287 3364 ft 216 kts 125°
2026-05-07 07:44 55.44570 12.34466 3076 ft 212 kts 103°
2026-05-07 07:44 55.44527 12.36941 2829 ft 202 kts 70°
2026-05-07 07:44 55.45216 12.39007 2675 ft 196 kts 42°
2026-05-07 07:44 55.46228 12.40539 2526 ft 189 kts 38°
2026-05-07 07:45 55.47247 12.41956 2416 ft 180 kts 36°
2026-05-07 07:45 55.48214 12.43323 2437 ft 179 kts 38°
2026-05-07 07:45 55.49135 12.44689 2558 ft 167 kts 39°
2026-05-07 07:45 55.49987 12.45997 2428 ft 157 kts 39°
2026-05-07 07:46 55.50786 12.47241 2242 ft 151 kts 39°
2026-05-07 07:46 55.51557 12.48446 2029 ft 145 kts 39°
2026-05-07 07:46 55.52284 12.49582 1836 ft 134 kts 39°
2026-05-07 07:46 55.52961 12.50638 1668 ft 129 kts 39°
2026-05-07 07:47 55.53621 12.51675 1474 ft 126 kts 40°
2026-05-07 07:47 55.54280 12.52703 1287 ft 125 kts 38°
2026-05-07 07:47 55.54934 12.53701 1134 ft 125 kts 39°
2026-05-07 07:47 55.55586 12.54701 987 ft 124 kts 38°
2026-05-07 07:48 55.56236 12.55713 826 ft 124 kts 39°
2026-05-07 07:48 55.56879 12.56723 644 ft 124 kts 39°
2026-05-07 07:48 55.57528 12.57719 481 ft 123 kts 38°
2026-05-07 07:48 55.58171 12.58717 328 ft 123 kts 40°
2026-05-07 07:49 55.58801 12.59714 153 ft 122 kts 39°
2026-05-07 07:49 55.59447 12.60704 19 ft 120 kts 38°
2026-05-07 07:49 55.59975 12.61517 12 ft 78 kts 40°
2026-05-07 07:49 55.60289 12.61999 14 ft 51 kts 40°
2026-05-07 07:50 55.60524 12.62287 15 ft 38 kts 20°
2026-05-07 07:50 55.60769 12.62398 17 ft 34 kts 25°
2026-05-07 07:50 55.60946 12.62639 21 ft 30 kts 40°
2026-05-07 07:50 55.61103 12.62872 23 ft 28 kts 41°
2026-05-07 07:51 55.61248 12.63107 20 ft 28 kts 40°
2026-05-07 07:51 55.61390 12.63325 22 ft 26 kts 40°
2026-05-07 07:51 55.61523 12.63530 22 ft 25 kts 41°
2026-05-07 07:51 55.61649 12.63724 24 ft 23 kts 41°
2026-05-07 07:52 55.61774 12.63918 22 ft 23 kts 40°
2026-05-07 07:52 55.61901 12.64087 19 ft 23 kts 25°
2026-05-07 07:52 55.62038 12.64211 17 ft 22 kts 26°
2026-05-07 07:52 55.62175 12.64325 15 ft 21 kts 25°
2026-05-07 07:53 55.62307 12.64409 15 ft 19 kts 14°
2026-05-07 07:53 55.62434 12.64470 17 ft 17 kts 15°
2026-05-07 07:53 55.62524 12.64399 17 ft 16 kts 304°
2026-05-07 07:53 55.62586 12.64236 17 ft 15 kts 305°
2026-05-07 07:54 55.62626 12.64129 17 ft 9 kts 304°
2026-05-07 07:54 55.62679 12.64141 18 ft 7 kts 33°
2026-05-07 07:54 55.62701 12.64166 18 ft 1 kts 32°
2026-05-07 07:54 55.62702 12.64167 18 ft 0 kts 32°